| time (UTC) | temp F | wind direction | speed MPH | gust MPH | rain 1hr in | rain 24hr in | rain mn in | humidity % | barometer mb |
| 20260902092325 | 72 | 295 | 0.0 | 2.0 | 0.00 | 0.00 | 0.00 | 45 | 1013.0 |
| 20260902091252 | 72 | 295 | 0.0 | 2.0 | 0.00 | 0.00 | 0.00 | 43 | 1013.0 |
| 20260902090250 | 73 | 90 | 0.0 | 1.0 | 0.00 | 0.00 | 0.00 | 43 | 1012.6 |
| 20260902085146 | 73 | 90 | 0.0 | 1.0 | 0.00 | 0.00 | 0.00 | 41 | 1012.6 |
| 20260902084145 | 74 | 90 | 0.0 | 2.0 | 0.00 | 0.00 | 0.00 | 41 | 1012.6 |
| 20260902083144 | 75 | 72 | 1.0 | 1.0 | 0.00 | 0.00 | 0.00 | 39 | 1012.3 |
| 20260902082040 | 75 | 72 | 0.0 | 1.0 | 0.00 | 0.00 | 0.00 | 37 | 1012.3 |
| 20260902081038 | 76 | 72 | 0.0 | 1.0 | 0.00 | 0.00 | 0.00 | 36 | 1012.3 |
| 20260902080005 | 76 | 72 | 0.0 | 3.0 | 0.00 | 0.00 | 0.00 | 35 | 1012.3 |
| 20260902075004 | 77 | 73 | 2.0 | 3.0 | 0.00 | 0.00 | 0.00 | 35 | 1012.0 |
| 20260902074003 | 77 | 161 | 0.0 | 4.0 | 0.00 | 0.00 | 0.00 | 34 | 1012.0 |
| 20260902073002 | 78 | 261 | 2.0 | 4.0 | 0.00 | 0.00 | 0.00 | 35 | 1012.0 |
| 20260902071827 | 78 | 224 | 1.0 | 4.0 | 0.00 | 0.00 | 0.00 | 35 | 1011.6 |
| 20260902070754 | 79 | 255 | 2.0 | 4.0 | 0.00 | 0.00 | 0.00 | 35 | 1011.6 |
| 20260902065753 | 79 | 264 | 1.0 | 3.0 | 0.00 | 0.00 | 0.00 | 35 | 1011.3 |
| 20260902064752 | 79 | 226 | 1.0 | 3.0 | 0.00 | 0.00 | 0.00 | 36 | 1011.6 |
| 20260902063750 | 79 | 251 | 0.0 | 2.0 | 0.00 | 0.00 | 0.00 | 36 | 1011.3 |
| 20260902062749 | 79 | 238 | 1.0 | 3.0 | 0.00 | 0.00 | 0.00 | 37 | 1011.3 |
| 20260902061748 | 79 | 238 | 1.0 | 3.0 | 0.00 | 0.00 | 0.00 | 35 | 1011.3 |
| 20260902060746 | 80 | 230 | 1.0 | 3.0 | 0.00 | 0.00 | 0.00 | 35 | 1011.3 |
| 20260902055745 | 80 | 260 | 1.0 | 3.0 | 0.00 | 0.00 | 0.00 | 34 | 1011.3 |
| 20260902054744 | 80 | 258 | 1.0 | 2.0 | 0.00 | 0.00 | 0.00 | 36 | 1011.3 |
| 20260902053742 | 80 | 258 | 0.0 | 2.0 | 0.00 | 0.00 | 0.00 | 36 | 1011.7 |
| 20260902052741 | 80 | 262 | 1.0 | 3.0 | 0.00 | 0.00 | 0.00 | 35 | 1011.7 |
| 20260902051739 | 80 | 249 | 1.0 | 3.0 | 0.00 | 0.00 | 0.00 | 35 | 1011.7 |
| 20260902050706 | 80 | 144 | 1.0 | 6.0 | 0.00 | 0.00 | 0.00 | 35 | 1011.7 |
| 20260902045705 | 80 | 273 | 2.0 | 7.0 | 0.00 | 0.00 | 0.00 | 34 | 1011.7 |
| 20260902044632 | 80 | 252 | 1.0 | 5.0 | 0.00 | 0.00 | 0.00 | 35 | 1011.3 |
| 20260902043631 | 81 | 266 | 1.0 | 7.0 | 0.00 | 0.00 | 0.00 | 35 | 1011.3 |
| 20260902042630 | 81 | 260 | 3.0 | 10.0 | 0.00 | 0.00 | 0.00 | 35 | 1011.3 |
| 20260902041628 | 82 | 340 | 2.0 | 11.0 | 0.00 | 0.00 | 0.00 | 34 | 1011.3 |
| 20260902040626 | 83 | 259 | 3.0 | 11.0 | 0.00 | 0.00 | 0.00 | 32 | 1011.3 |
| 20260902035625 | 84 | 221 | 2.0 | 9.0 | 0.00 | 0.00 | 0.00 | 32 | 1011.3 |
| 20260902034623 | 84 | 307 | 1.0 | 5.0 | 0.00 | 0.00 | 0.00 | 33 | 1011.3 |
| 20260902033551 | 83 | 77 | 2.0 | 5.0 | 0.00 | 0.00 | 0.00 | 34 | 1011.7 |
| 20260902032518 | 81 | 99 | 2.0 | 5.0 | 0.00 | 0.00 | 0.00 | 37 | 1011.7 |
| 20260902031517 | 82 | 118 | 1.0 | 7.0 | 0.00 | 0.00 | 0.00 | 39 | 1012.0 |
| 20260902030445 | 82 | 72 | 1.0 | 7.0 | 0.00 | 0.00 | 0.00 | 39 | 1012.4 |
| 20260902025411 | 83 | 197 | 1.0 | 8.0 | 0.00 | 0.00 | 0.00 | 38 | 1012.4 |
| 20260902024410 | 83 | 6 | 2.0 | 8.0 | 0.00 | 0.00 | 0.00 | 38 | 1012.7 |
| 20260902023408 | 83 | 250 | 3.0 | 7.0 | 0.00 | 0.00 | 0.00 | 36 | 1013.0 |
| 20260902022336 | 83 | 231 | 2.0 | 10.0 | 0.00 | 0.00 | 0.00 | 38 | 1013.0 |
| 20260902021334 | 83 | 265 | 4.0 | 10.0 | 0.00 | 0.00 | 0.00 | 36 | 1013.0 |
| 20260902020333 | 82 | 1 | 2.0 | 9.0 | 0.00 | 0.00 | 0.00 | 38 | 1013.4 |
| 20260902015331 | 83 | 204 | 2.0 | 8.0 | 0.00 | 0.00 | 0.00 | 38 | 1013.4 |
| 20260902014330 | 82 | 301 | 3.0 | 8.0 | 0.00 | 0.00 | 0.00 | 38 | 1013.7 |
| 20260902013329 | 81 | 14 | 2.0 | 7.0 | 0.00 | 0.00 | 0.00 | 40 | 1013.7 |
| 20260902012328 | 81 | 333 | 2.0 | 7.0 | 0.00 | 0.00 | 0.00 | 40 | 1014.0 |
| 20260902011255 | 80 | 3 | 2.0 | 8.0 | 0.00 | 0.00 | 0.00 | 41 | 1014.4 |
| 20260902010254 | 80 | 23 | 1.0 | 8.0 | 0.00 | 0.00 | 0.00 | 42 | 1014.4 |
| 20260902005252 | 79 | 318 | 1.0 | 12.0 | 0.00 | 0.00 | 0.00 | 42 | 1014.4 |
| 20260902004251 | 79 | 4 | 4.0 | 12.0 | 0.00 | 0.00 | 0.00 | 42 | 1014.7 |
| 20260902003250 | 79 | 14 | 2.0 | 9.0 | 0.00 | 0.00 | 0.00 | 43 | 1014.7 |
| 20260902002249 | 78 | 329 | 2.0 | 8.0 | 0.00 | 0.00 | 0.00 | 44 | 1015.0 |
| 20260902001248 | 77 | 5 | 2.0 | 9.0 | 0.00 | 0.00 | 0.00 | 45 | 1015.4 |
| 20260902000215 | 76 | 352 | 3.0 | 9.0 | 0.00 | 0.00 | 0.00 | 46 | 1015.4 |
| 20260901235142 | 76 | 348 | 2.0 | 7.0 | 0.00 | 0.00 | 0.00 | 46 | 1015.7 |
| 20260901234109 | 75 | 330 | 1.0 | 6.0 | 0.00 | 0.00 | 0.00 | 49 | 1015.7 |
| 20260901233108 | 73 | 328 | 2.0 | 11.0 | 0.00 | 0.00 | 0.00 | 52 | 1015.7 |
| 20260901231830 | 71 | 347 | 4.0 | 11.0 | 0.00 | 0.00 | 0.00 | 55 | 1015.7 |
| 20260901230829 | 70 | 351 | 1.0 | 8.0 | 0.00 | 0.00 | 0.00 | 56 | 1016.0 |
| 20260901225827 | 69 | 334 | 1.0 | 6.0 | 0.00 | 0.00 | 0.00 | 58 | 1016.0 |
| 20260901224825 | 69 | 332 | 1.0 | 3.0 | 0.00 | 0.00 | 0.00 | 58 | 1016.0 |
| 20260901223823 | 69 | 342 | 1.0 | 3.0 | 0.00 | 0.00 | 0.00 | 58 | 1016.3 |
| 20260901222822 | 69 | 295 | 0.0 | 5.0 | 0.00 | 0.00 | 0.00 | 58 | 1016.3 |
| 20260901221821 | 68 | 295 | 1.0 | 5.0 | 0.00 | 0.00 | 0.00 | 58 | 1016.4 |
| 20260901220820 | 68 | 348 | 0.0 | 2.0 | 0.00 | 0.00 | 0.00 | 58 | 1016.0 |
| 20260901215716 | 67 | 348 | 0.0 | 2.0 | 0.00 | 0.00 | 0.00 | 58 | 1016.0 |
| 20260901214715 | 67 | 349 | 0.0 | 6.0 | 0.00 | 0.00 | 0.00 | 58 | 1016.0 |
| 20260901213713 | 67 | 349 | 2.0 | 6.0 | 0.00 | 0.00 | 0.00 | 58 | 1016.0 |
| 20260901212712 | 66 | 9 | 1.0 | 2.0 | 0.00 | 0.00 | 0.00 | 59 | 1016.0 |
| 20260901211710 | 66 | 9 | 0.0 | 3.0 | 0.00 | 0.00 | 0.00 | 58 | 1016.4 |
| 20260901210708 | 66 | 305 | 0.0 | 3.0 | 0.00 | 0.00 | 0.00 | 58 | 1016.0 |
| 20260901205707 | 66 | 308 | 1.0 | 4.0 | 0.00 | 0.00 | 0.00 | 58 | 1016.0 |
| 20260901204635 | 65 | 340 | 1.0 | 4.0 | 0.00 | 0.00 | 0.00 | 59 | 1016.0 |
| 20260901203602 | 64 | 272 | 0.0 | 1.0 | 0.00 | 0.00 | 0.00 | 58 | 1016.0 |
| 20260901202601 | 64 | 272 | 0.0 | 1.0 | 0.00 | 0.00 | 0.00 | 58 | 1016.3 |
| 20260901201559 | 64 | 272 | 0.0 | 2.0 | 0.00 | 0.00 | 0.00 | 57 | 1016.3 |
| 20260901200557 | 63 | 272 | 1.0 | 2.0 | 0.00 | 0.00 | 0.00 | 56 | 1016.3 |
| 20260901195556 | 63 | 339 | 1.0 | 1.0 | 0.00 | 0.00 | 0.00 | 53 | 1016.0 |
| 20260901194554 | 64 | 339 | 0.0 | 1.0 | 0.00 | 0.00 | 0.00 | 53 | 1015.6 |
| 20260901193552 | 64 | 339 | 0.0 | 2.0 | 0.00 | 0.00 | 0.00 | 57 | 1015.6 |
| 20260901192551 | 64 | 339 | 1.0 | 2.0 | 0.00 | 0.00 | 0.00 | 59 | 1015.3 |
| 20260901191549 | 63 | 339 | 0.0 | 1.0 | 0.00 | 0.00 | 0.00 | 59 | 1015.6 |
| 20260901190548 | 63 | 339 | 1.0 | 1.0 | 0.00 | 0.00 | 0.00 | 59 | 1015.3 |
| 20260901185547 | 63 | 339 | 0.0 | 0.0 | 0.00 | 0.00 | 0.00 | 59 | 1015.3 |
| 20260901184545 | 63 | 339 | 0.0 | 1.0 | 0.00 | 0.00 | 0.00 | 59 | 1015.3 |
| 20260901183544 | 64 | 339 | 0.0 | 2.0 | 0.00 | 0.00 | 0.00 | 60 | 1015.0 |
| 20260901182511 | 64 | 339 | 1.0 | 7.0 | 0.00 | 0.00 | 0.00 | 60 | 1015.0 |
| 20260901181510 | 64 | 340 | 1.0 | 9.0 | 0.00 | 0.00 | 0.00 | 60 | 1015.0 |
| 20260901180508 | 65 | 338 | 5.0 | 9.0 | 0.00 | 0.00 | 0.00 | 60 | 1015.0 |
| 20260901175506 | 65 | 339 | 5.0 | 9.0 | 0.00 | 0.00 | 0.00 | 59 | 1015.0 |
| 20260901174505 | 65 | 342 | 2.0 | 9.0 | 0.00 | 0.00 | 0.00 | 59 | 1015.3 |
| 20260901173432 | 64 | 342 | 4.0 | 7.0 | 0.00 | 0.00 | 0.00 | 60 | 1015.0 |
| 20260901172431 | 64 | 343 | 2.0 | 6.0 | 0.00 | 0.00 | 0.00 | 60 | 1015.3 |
| 20260901171327 | 65 | 341 | 2.0 | 7.0 | 0.00 | 0.00 | 0.00 | 59 | 1015.3 |
| 20260901170326 | 65 | 340 | 3.0 | 7.0 | 0.00 | 0.00 | 0.00 | 59 | 1015.3 |
| 20260901165324 | 65 | 339 | 2.0 | 7.0 | 0.00 | 0.00 | 0.00 | 59 | 1015.3 |
| 20260901164252 | 65 | 344 | 3.0 | 7.0 | 0.00 | 0.00 | 0.00 | 59 | 1015.7 |
| 20260901163251 | 65 | 336 | 2.0 | 5.0 | 0.00 | 0.00 | 0.00 | 59 | 1015.7 |
| 20260901162249 | 65 | 336 | 1.0 | 3.0 | 0.00 | 0.00 | 0.00 | 59 | 1015.7 |
| 20260901161247 | 65 | 335 | 1.0 | 3.0 | 0.00 | 0.00 | 0.00 | 59 | 1016.0 |
| 20260901160245 | 65 | 336 | 1.0 | 3.0 | 0.00 | 0.00 | 0.00 | 59 | 1015.7 |
| 20260901155244 | 65 | 335 | 2.0 | 3.0 | 0.00 | 0.00 | 0.00 | 60 | 1016.0 |
| 20260901154211 | 65 | 341 | 1.0 | 5.0 | 0.00 | 0.00 | 0.00 | 59 | 1016.0 |
| 20260901153210 | 65 | 345 | 1.0 | 5.0 | 0.00 | 0.00 | 0.00 | 59 | 1016.0 |
| 20260901152208 | 66 | 0 | 1.0 | 2.0 | 0.00 | 0.00 | 0.00 | 59 | 1016.0 |
| 20260901151207 | 66 | 0 | 1.0 | 5.0 | 0.00 | 0.00 | 0.00 | 59 | 1016.3 |
| 20260901150205 | 66 | 360 | 0.0 | 5.0 | 0.00 | 0.00 | 0.00 | 58 | 1016.3 |
| 20260901145203 | 66 | 343 | 1.0 | 5.0 | 0.00 | 0.00 | 0.00 | 58 | 1016.3 |
| 20260901144201 | 66 | 305 | 1.0 | 6.0 | 0.00 | 0.00 | 0.00 | 59 | 1016.7 |
| 20260901143159 | 66 | 336 | 2.0 | 8.0 | 0.00 | 0.00 | 0.00 | 59 | 1016.7 |
| 20260901142118 | 65 | 325 | 3.0 | 8.0 | 0.00 | 0.00 | 0.00 | 59 | 1016.7 |
| 20260901141014 | 65 | 343 | 1.0 | 5.0 | 0.00 | 0.00 | 0.00 | 59 | 1016.7 |
| 20260901140013 | 65 | 340 | 2.0 | 4.0 | 0.00 | 0.00 | 0.00 | 59 | 1017.0 |
| 20260901135012 | 64 | 350 | 1.0 | 4.0 | 0.00 | 0.00 | 0.00 | 59 | 1017.0 |
| 20260901134010 | 64 | 312 | 1.0 | 3.0 | 0.00 | 0.00 | 0.00 | 59 | 1017.0 |
| 20260901133008 | 65 | 319 | 1.0 | 7.0 | 0.00 | 0.00 | 0.00 | 59 | 1017.0 |
| 20260901131936 | 66 | 327 | 1.0 | 7.0 | 0.00 | 0.00 | 0.00 | 58 | 1017.0 |
| 20260901130935 | 66 | 346 | 2.0 | 7.0 | 0.00 | 0.00 | 0.00 | 57 | 1017.0 |
| 20260901125933 | 66 | 316 | 2.0 | 7.0 | 0.00 | 0.00 | 0.00 | 56 | 1017.4 |
| 20260901124932 | 65 | 338 | 2.0 | 4.0 | 0.00 | 0.00 | 0.00 | 58 | 1017.3 |
| 20260901123931 | 65 | 336 | 0.0 | 2.0 | 0.00 | 0.00 | 0.00 | 58 | 1017.3 |
| 20260901122930 | 66 | 336 | 1.0 | 5.0 | 0.00 | 0.00 | 0.00 | 56 | 1017.4 |
| 20260901121929 | 66 | 335 | 1.0 | 5.0 | 0.00 | 0.00 | 0.00 | 56 | 1017.4 |
| 20260901120927 | 65 | 337 | 2.0 | 5.0 | 0.00 | 0.00 | 0.00 | 57 | 1017.7 |
| 20260901115925 | 64 | 345 | 1.0 | 4.0 | 0.00 | 0.00 | 0.00 | 58 | 1017.7 |
| 20260901114924 | 64 | 353 | 1.0 | 2.0 | 0.00 | 0.00 | 0.00 | 58 | 1018.0 |
| 20260901113923 | 64 | 349 | 1.0 | 2.0 | 0.00 | 0.00 | 0.00 | 57 | 1018.4 |
| 20260901112922 | 64 | 5 | 1.0 | 2.0 | 0.00 | 0.00 | 0.00 | 57 | 1018.4 |
| 20260901111920 | 64 | 306 | 1.0 | 1.0 | 0.00 | 0.00 | 0.00 | 58 | 1018.7 |
| 20260901110816 | 64 | 306 | 0.0 | 1.0 | 0.00 | 0.00 | 0.00 | 59 | 1018.7 |
| 20260901105815 | 64 | 306 | 0.0 | 1.0 | 0.00 | 0.00 | 0.00 | 59 | 1018.7 |
| 20260901104813 | 64 | 271 | 1.0 | 1.0 | 0.00 | 0.00 | 0.00 | 58 | 1018.7 |
| 20260901103740 | 64 | 259 | 0.0 | 1.0 | 0.00 | 0.00 | 0.00 | 58 | 1018.7 |
| 20260901102739 | 65 | 259 | 0.0 | 1.0 | 0.00 | 0.00 | 0.00 | 56 | 1018.7 |
| 20260901101738 | 66 | 259 | 0.0 | 1.0 | 0.00 | 0.00 | 0.00 | 55 | 1018.7 |
| 20260901100737 | 67 | 259 | 0.0 | 1.0 | 0.00 | 0.00 | 0.00 | 51 | 1018.7 |
| 20260901095735 | 68 | 259 | 0.0 | 1.0 | 0.00 | 0.00 | 0.00 | 49 | 1018.7 |
| 20260901094733 | 68 | 259 | 0.0 | 1.0 | 0.00 | 0.00 | 0.00 | 48 | 1018.7 |
| 20260901093732 | 69 | 259 | 0.0 | 1.0 | 0.00 | 0.00 | 0.00 | 46 | 1018.7 |